Flag for U.S.A. Weather past 2 weeks in Hereford, Texas, U.S.A.

Now
19 °F

Mostly cloudy.


Feels Like: 5 °F
Forecast: 7 / 13 °F
Wind: 15 mph from Southeast

Location: Clovis Municipal

Current Time: Feb 27, 2015 at 1:12:22 AM

Latest Report: Feb 27, 2015 at 12:35 AM


Visibility: 5 mi

Pressure: 30.20 "Hg

Humidity: 73%

Dew point: 12 °F

Location of HerefordLocation

Historic Weather in Hereford — Graph

°F

Hereford temperature yesterday

Maximum temperature yesterday: 37 °F (at 12:15 AM)
Minimum temperature yesterday: 19 °F (at 11:15 PM)
Average temperature yesterday: 24 °F

Past Weeks' High & Low Weather Summary

 TemperatureHumidityPressure
High73 °F (Feb 20, 2:55 PM)93% (Feb 12, 2:55 AM)30.47 "Hg (Feb 12, 2:55 AM)
Low10 °F (Feb 23, 4:15 AM)13% (Feb 19, 4:35 PM)29.68 "Hg (Feb 20, 5:15 PM)
Average37 °F62%30.12 "Hg
* Reported Feb 11 11:15 PM — Feb 26 11:55 PM, Hereford, Weather by CustomWeather, © 2015

Note: Actual official high and low records may vary slightly from our data, if they occured in-between our weather recording intervals... More about our weather records

Advertising

Hereford weather history for previous 24 hours

 ConditionsComfort  
Time TempWeatherWind HumidityBarometerVisibility
11:55 PM
Thu, Feb 26
19 °FMostly cloudy.17 mph79%30.18 "Hg10 mi
11:35 PM19 °FOvercast.18 mph73%30.19 "Hg10 mi
11:15 PM19 °FOvercast.17 mph79%30.20 "Hg10 mi
10:55 PM21 °FOvercast.12 mph80%30.21 "Hg10 mi
10:35 PM21 °FOvercast.13 mph80%30.21 "Hg10 mi
10:15 PM21 °FOvercast.13 mph80%30.22 "Hg10 mi
9:15 PM21 °FOvercast.9 mph80%30.22 "Hg10 mi
8:55 PM21 °FOvercast.13 mph86%30.22 "Hg10 mi
8:35 PM21 °FOvercast.12 mph86%30.21 "Hg10 mi
8:15 PM21 °FOvercast.12 mph86%30.21 "Hg10 mi
7:55 PM21 °FMostly cloudy.13 mph86%30.21 "Hg10 mi
7:35 PM21 °FOvercast.13 mph86%30.21 "Hg10 mi
7:15 PM21 °FOvercast.12 mph86%30.21 "Hg10 mi
6:55 PM21 °FOvercast.14 mph86%30.21 "Hg10 mi
6:35 PM21 °FOvercast.13 mph86%30.20 "Hg10 mi
6:15 PM21 °FOvercast.14 mph86%30.20 "Hg10 mi
5:55 PM21 °FOvercast.14 mph86%30.19 "Hg10 mi
5:35 PM21 °FOvercast.13 mph86%30.19 "Hg10 mi
5:15 PM21 °FOvercast.13 mph86%30.20 "Hg10 mi
4:55 PM21 °FOvercast.13 mph86%30.19 "Hg10 mi
4:35 PM23 °FOvercast.13 mph80%30.19 "Hg10 mi
4:15 PM23 °FOvercast.13 mph80%30.20 "Hg10 mi
3:55 PM23 °FOvercast.14 mph80%30.20 "Hg10 mi
3:35 PM23 °FOvercast.13 mph80%30.21 "Hg10 mi
3:15 PM25 °FOvercast.13 mph74%30.20 "Hg10 mi
2:55 PM25 °FOvercast.14 mph74%30.20 "Hg9 mi
2:35 PM23 °FOvercast.15 mph80%30.21 "Hg10 mi
2:15 PM23 °FMostly cloudy.15 mph80%30.21 "Hg10 mi
1:55 PM23 °FOvercast.12 mph80%30.23 "Hg10 mi
1:35 PM23 °FMostly cloudy.14 mph80%30.23 "Hg10 mi
1:15 PM23 °FMostly cloudy.14 mph80%30.24 "Hg10 mi
12:55 PM23 °FMostly cloudy.15 mph80%30.24 "Hg10 mi
12:35 PM21 °FMostly cloudy.16 mph86%30.24 "Hg10 mi
12:15 PM21 °FMostly cloudy.17 mph80%30.24 "Hg10 mi
11:55 AM21 °FMostly cloudy.18 mph86%30.25 "Hg10 mi
11:35 AM21 °FMostly cloudy.15 mph86%30.25 "Hg7 mi
11:15 AM21 °FOvercast.15 mph80%30.26 "Hg8 mi
10:55 AM21 °FOvercast.18 mph86%30.25 "Hg5 mi
10:35 AM21 °FCloudy.18 mph86%30.25 "Hg8 mi
10:15 AM21 °FBroken clouds.20 mph80%30.25 "Hg10 mi
9:55 AM21 °FOvercast.22 mph86%30.25 "Hg10 mi
9:35 AM21 °FMore clouds than sun.21 mph80%30.24 "Hg10 mi
9:15 AM21 °FMore clouds than sun.24 mph86%30.23 "Hg10 mi
8:55 AM21 °FOvercast.16 mph86%30.23 "Hg8 mi
8:35 AM21 °FOvercast.20 mph86%30.20 "Hg10 mi
8:15 AM23 °FOvercast.21 mph86%30.20 "Hg10 mi
7:55 AM25 °FMore clouds than sun.17 mph80%30.19 "Hg10 mi
7:35 AM25 °FOvercast.20 mph80%30.17 "Hg10 mi
7:15 AM25 °FOvercast.22 mph80%30.15 "Hg10 mi
6:55 AM27 °FMostly cloudy.21 mph80%30.15 "Hg10 mi
6:35 AM27 °FMostly cloudy.22 mph80%30.14 "Hg10 mi
6:15 AM27 °FMostly cloudy.21 mph86%30.13 "Hg10 mi
5:55 AM28 °FMostly cloudy.21 mph86%30.12 "Hg10 mi
5:35 AM28 °FMostly cloudy.21 mph86%30.10 "Hg10 mi
5:15 AM28 °FMostly cloudy.21 mph86%30.09 "Hg10 mi
4:55 AM28 °FOvercast.21 mph86%30.07 "Hg10 mi
4:35 AM28 °FMostly cloudy.23 mph93%30.07 "Hg10 mi
4:15 AM28 °FMostly cloudy.23 mph93%30.07 "Hg7 mi
3:55 AM28 °FMostly cloudy.28 mph93%30.07 "Hg2 mi
3:35 AM28 °FMostly cloudy.25 mph93%30.06 "Hg1 mi
2:55 AM30 °FMostly cloudy.24 mph93%30.05 "Hg2 mi
2:35 AM32 °FLow clouds.26 mph93%30.05 "Hg1 mi
2:15 AM32 °FLow clouds.23 mph93%30.05 "Hg2 mi
1:55 AM32 °FLow clouds.15 mph93%30.03 "Hg2 mi
1:35 AM34 °FLow clouds.12 mph87%30.02 "Hg2 mi
1:15 AM34 °FLow clouds.12 mph87%30.02 "Hg4 mi
Weather by CustomWeather, © 2015

See weather overviewHow to use our weather pages